Data supplied by UK-AIR on 5/4/2008
All Data GMT hour ending 
Status: R =Ratified P=Provisional,P*=As supplied
,,Walsall Alumwell,,,,,,,,,,,,,,,,,,,,,,,
Date,time,"Nitric oxide",status,unit,"Nitrogen dioxide",status,unit,"Nitrogen oxides as nitrogen dioxide",status,unit
 
01-01-2000,01:00,,,,,,,,,
01-01-2000,02:00,5,R,ugm-3,17,R,ugm-3,25,R,ugm-3
01-01-2000,03:00,3,R,ugm-3,4,R,ugm-3,8,R,ugm-3
01-01-2000,04:00,1,R,ugm-3,4,R,ugm-3,6,R,ugm-3
01-01-2000,05:00,1,R,ugm-3,8,R,ugm-3,10,R,ugm-3
01-01-2000,06:00,3,R,ugm-3,15,R,ugm-3,19,R,ugm-3
01-01-2000,07:00,28,R,ugm-3,32,R,ugm-3,74,R,ugm-3
01-01-2000,08:00,58,R,ugm-3,38,R,ugm-3,126,R,ugm-3
01-01-2000,09:00,111,R,ugm-3,42,R,ugm-3,212,R,ugm-3
01-01-2000,10:00,83,R,ugm-3,40,R,ugm-3,166,R,ugm-3
01-01-2000,11:00,11,R,ugm-3,19,R,ugm-3,36,R,ugm-3
01-01-2000,12:00,16,R,ugm-3,25,R,ugm-3,50,R,ugm-3
01-01-2000,13:00,26,R,ugm-3,29,R,ugm-3,69,R,ugm-3
01-01-2000,14:00,39,R,ugm-3,38,R,ugm-3,97,R,ugm-3
01-01-2000,15:00,59,R,ugm-3,52,R,ugm-3,141,R,ugm-3
01-01-2000,16:00,48,R,ugm-3,53,R,ugm-3,126,R,ugm-3
01-01-2000,17:00,33,R,ugm-3,52,R,ugm-3,101,R,ugm-3
01-01-2000,18:00,41,R,ugm-3,53,R,ugm-3,117,R,ugm-3
01-01-2000,19:00,83,R,ugm-3,57,R,ugm-3,183,R,ugm-3
01-01-2000,20:00,133,R,ugm-3,57,R,ugm-3,260,R,ugm-3
01-01-2000,21:00,193,R,ugm-3,59,R,ugm-3,353,R,ugm-3
01-01-2000,22:00,213,R,ugm-3,59,R,ugm-3,384,R,ugm-3
01-01-2000,23:00,114,R,ugm-3,52,R,ugm-3,225,R,ugm-3
01-01-2000,24:00,14,R,ugm-3,32,R,ugm-3,53,R,ugm-3
02-01-2000,01:00,26,R,ugm-3,34,R,ugm-3,74,R,ugm-3
02-01-2000,02:00,4,R,ugm-3,6,R,ugm-3,11,R,ugm-3
02-01-2000,03:00,4,R,ugm-3,4,R,ugm-3,10,R,ugm-3
02-01-2000,04:00,3,R,ugm-3,4,R,ugm-3,8,R,ugm-3
02-01-2000,05:00,4,R,ugm-3,4,R,ugm-3,10,R,ugm-3
02-01-2000,06:00,4,R,ugm-3,2,R,ugm-3,8,R,ugm-3
02-01-2000,07:00,4,R,ugm-3,11,R,ugm-3,17,R,ugm-3
02-01-2000,08:00,8,R,ugm-3,17,R,ugm-3,29,R,ugm-3
02-01-2000,09:00,8,R,ugm-3,25,R,ugm-3,36,R,ugm-3
02-01-2000,10:00,16,R,ugm-3,32,R,ugm-3,57,R,ugm-3
02-01-2000,11:00,11,R,ugm-3,21,R,ugm-3,38,R,ugm-3
02-01-2000,12:00,18,R,ugm-3,29,R,ugm-3,55,R,ugm-3
02-01-2000,13:00,10,R,ugm-3,29,R,ugm-3,44,R,ugm-3
02-01-2000,14:00,9,R,ugm-3,25,R,ugm-3,38,R,ugm-3
02-01-2000,15:00,10,R,ugm-3,29,R,ugm-3,44,R,ugm-3
02-01-2000,16:00,8,R,ugm-3,32,R,ugm-3,44,R,ugm-3
02-01-2000,17:00,8,R,ugm-3,29,R,ugm-3,40,R,ugm-3
02-01-2000,18:00,5,R,ugm-3,21,R,ugm-3,29,R,ugm-3
02-01-2000,19:00,4,R,ugm-3,17,R,ugm-3,23,R,ugm-3
02-01-2000,20:00,6,R,ugm-3,13,R,ugm-3,23,R,ugm-3
02-01-2000,21:00,9,R,ugm-3,21,R,ugm-3,34,R,ugm-3
02-01-2000,22:00,5,R,ugm-3,8,R,ugm-3,15,R,ugm-3
02-01-2000,23:00,4,R,ugm-3,4,R,ugm-3,10,R,ugm-3
02-01-2000,24:00,5,R,ugm-3,2,R,ugm-3,10,R,ugm-3
03-01-2000,01:00,5,R,ugm-3,6,R,ugm-3,13,R,ugm-3
03-01-2000,02:00,4,R,ugm-3,10,R,ugm-3,15,R,ugm-3
03-01-2000,03:00,4,R,ugm-3,6,R,ugm-3,11,R,ugm-3
03-01-2000,04:00,4,R,ugm-3,6,R,ugm-3,11,R,ugm-3
03-01-2000,05:00,4,R,ugm-3,10,R,ugm-3,15,R,ugm-3
03-01-2000,06:00,8,R,ugm-3,6,R,ugm-3,17,R,ugm-3
03-01-2000,07:00,8,R,ugm-3,11,R,ugm-3,23,R,ugm-3
03-01-2000,08:00,8,R,ugm-3,21,R,ugm-3,32,R,ugm-3
03-01-2000,09:00,10,R,ugm-3,21,R,ugm-3,36,R,ugm-3
03-01-2000,10:00,13,R,ugm-3,31,R,ugm-3,50,R,ugm-3
03-01-2000,11:00,20,R,ugm-3,36,R,ugm-3,67,R,ugm-3
03-01-2000,12:00,18,R,ugm-3,31,R,ugm-3,57,R,ugm-3
03-01-2000,13:00,23,R,ugm-3,40,R,ugm-3,74,R,ugm-3
03-01-2000,14:00,26,R,ugm-3,48,R,ugm-3,88,R,ugm-3
03-01-2000,15:00,38,R,ugm-3,53,R,ugm-3,111,R,ugm-3
03-01-2000,16:00,38,R,ugm-3,52,R,ugm-3,109,R,ugm-3
03-01-2000,17:00,21,R,ugm-3,44,R,ugm-3,76,R,ugm-3
03-01-2000,18:00,13,R,ugm-3,36,R,ugm-3,55,R,ugm-3
03-01-2000,19:00,16,R,ugm-3,44,R,ugm-3,69,R,ugm-3
03-01-2000,20:00,16,R,ugm-3,38,R,ugm-3,63,R,ugm-3
03-01-2000,21:00,19,R,ugm-3,38,R,ugm-3,67,R,ugm-3
03-01-2000,22:00,18,R,ugm-3,40,R,ugm-3,67,R,ugm-3
03-01-2000,23:00,15,R,ugm-3,32,R,ugm-3,55,R,ugm-3
03-01-2000,24:00,11,R,ugm-3,29,R,ugm-3,46,R,ugm-3
04-01-2000,01:00,10,R,ugm-3,32,R,ugm-3,48,R,ugm-3
04-01-2000,02:00,3,R,ugm-3,25,R,ugm-3,29,R,ugm-3
04-01-2000,03:00,4,R,ugm-3,21,R,ugm-3,27,R,ugm-3
04-01-2000,04:00,9,R,ugm-3,27,R,ugm-3,40,R,ugm-3
04-01-2000,05:00,4,R,ugm-3,21,R,ugm-3,27,R,ugm-3
04-01-2000,06:00,6,R,ugm-3,29,R,ugm-3,38,R,ugm-3
04-01-2000,07:00,34,R,ugm-3,50,R,ugm-3,101,R,ugm-3
04-01-2000,08:00,29,R,ugm-3,53,R,ugm-3,97,R,ugm-3
04-01-2000,09:00,26,R,ugm-3,59,R,ugm-3,99,R,ugm-3
04-01-2000,10:00,19,R,ugm-3,50,R,ugm-3,78,R,ugm-3
04-01-2000,11:00,19,R,ugm-3,46,R,ugm-3,74,R,ugm-3
04-01-2000,12:00,26,R,ugm-3,53,R,ugm-3,94,R,ugm-3
04-01-2000,13:00,19,R,ugm-3,46,R,ugm-3,74,R,ugm-3
04-01-2000,14:00,25,R,ugm-3,40,R,ugm-3,78,R,ugm-3
04-01-2000,15:00,34,R,ugm-3,52,R,ugm-3,103,R,ugm-3
04-01-2000,16:00,30,R,ugm-3,48,R,ugm-3,94,R,ugm-3
04-01-2000,17:00,33,R,ugm-3,52,R,ugm-3,101,R,ugm-3
04-01-2000,18:00,31,R,ugm-3,55,R,ugm-3,103,R,ugm-3
04-01-2000,19:00,33,R,ugm-3,53,R,ugm-3,103,R,ugm-3
04-01-2000,20:00,21,R,ugm-3,36,R,ugm-3,69,R,ugm-3
04-01-2000,21:00,20,R,ugm-3,31,R,ugm-3,61,R,ugm-3
04-01-2000,22:00,21,R,ugm-3,34,R,ugm-3,67,R,ugm-3
04-01-2000,23:00,28,R,ugm-3,46,R,ugm-3,88,R,ugm-3
04-01-2000,24:00,21,R,ugm-3,38,R,ugm-3,71,R,ugm-3
05-01-2000,01:00,20,R,ugm-3,40,R,ugm-3,71,R,ugm-3
05-01-2000,02:00,8,R,ugm-3,25,R,ugm-3,36,R,ugm-3
05-01-2000,03:00,8,R,ugm-3,31,R,ugm-3,42,R,ugm-3
05-01-2000,04:00,10,R,ugm-3,38,R,ugm-3,53,R,ugm-3
05-01-2000,05:00,9,R,ugm-3,32,R,ugm-3,46,R,ugm-3
05-01-2000,06:00,8,R,ugm-3,31,R,ugm-3,42,R,ugm-3
05-01-2000,07:00,11,R,ugm-3,46,R,ugm-3,63,R,ugm-3
05-01-2000,08:00,9,R,ugm-3,42,R,ugm-3,55,R,ugm-3
05-01-2000,09:00,15,R,ugm-3,53,R,ugm-3,76,R,ugm-3
05-01-2000,10:00,21,R,ugm-3,63,R,ugm-3,96,R,ugm-3
05-01-2000,11:00,14,R,ugm-3,42,R,ugm-3,63,R,ugm-3
05-01-2000,12:00,16,R,ugm-3,38,R,ugm-3,63,R,ugm-3
05-01-2000,13:00,15,R,ugm-3,34,R,ugm-3,57,R,ugm-3
05-01-2000,14:00,13,R,ugm-3,29,R,ugm-3,48,R,ugm-3
05-01-2000,15:00,11,R,ugm-3,31,R,ugm-3,48,R,ugm-3
05-01-2000,16:00,,,,,,,,,
05-01-2000,17:00,8,R,ugm-3,29,R,ugm-3,40,R,ugm-3
05-01-2000,18:00,8,R,ugm-3,23,R,ugm-3,34,R,ugm-3
05-01-2000,19:00,8,R,ugm-3,21,R,ugm-3,32,R,ugm-3
05-01-2000,20:00,6,R,ugm-3,21,R,ugm-3,31,R,ugm-3
05-01-2000,21:00,6,R,ugm-3,17,R,ugm-3,27,R,ugm-3
05-01-2000,22:00,5,R,ugm-3,13,R,ugm-3,21,R,ugm-3
05-01-2000,23:00,6,R,ugm-3,8,R,ugm-3,17,R,ugm-3
05-01-2000,24:00,8,R,ugm-3,15,R,ugm-3,27,R,ugm-3
06-01-2000,01:00,10,R,ugm-3,10,R,ugm-3,25,R,ugm-3
06-01-2000,02:00,14,R,ugm-3,19,R,ugm-3,40,R,ugm-3
06-01-2000,03:00,11,R,ugm-3,23,R,ugm-3,40,R,ugm-3
06-01-2000,04:00,13,R,ugm-3,19,R,ugm-3,38,R,ugm-3
06-01-2000,05:00,13,R,ugm-3,17,R,ugm-3,36,R,ugm-3
06-01-2000,06:00,23,R,ugm-3,29,R,ugm-3,63,R,ugm-3
06-01-2000,07:00,36,R,ugm-3,42,R,ugm-3,97,R,ugm-3
06-01-2000,08:00,31,R,ugm-3,40,R,ugm-3,88,R,ugm-3
06-01-2000,09:00,33,R,ugm-3,44,R,ugm-3,94,R,ugm-3
06-01-2000,10:00,30,R,ugm-3,46,R,ugm-3,92,R,ugm-3
06-01-2000,11:00,38,R,ugm-3,40,R,ugm-3,97,R,ugm-3
06-01-2000,12:00,35,R,ugm-3,38,R,ugm-3,92,R,ugm-3
06-01-2000,13:00,33,R,ugm-3,32,R,ugm-3,82,R,ugm-3
06-01-2000,14:00,36,R,ugm-3,38,R,ugm-3,94,R,ugm-3
06-01-2000,15:00,51,R,ugm-3,53,R,ugm-3,132,R,ugm-3
06-01-2000,16:00,59,R,ugm-3,63,R,ugm-3,153,R,ugm-3
06-01-2000,17:00,161,R,ugm-3,78,R,ugm-3,325,R,ugm-3
06-01-2000,18:00,270,R,ugm-3,90,R,ugm-3,502,R,ugm-3
06-01-2000,19:00,165,R,ugm-3,80,R,ugm-3,332,R,ugm-3
06-01-2000,20:00,131,R,ugm-3,71,R,ugm-3,271,R,ugm-3
06-01-2000,21:00,88,R,ugm-3,65,R,ugm-3,199,R,ugm-3
06-01-2000,22:00,74,R,ugm-3,63,R,ugm-3,176,R,ugm-3
06-01-2000,23:00,49,R,ugm-3,61,R,ugm-3,136,R,ugm-3
06-01-2000,24:00,19,R,ugm-3,46,R,ugm-3,74,R,ugm-3
07-01-2000,01:00,8,R,ugm-3,38,R,ugm-3,50,R,ugm-3
07-01-2000,02:00,9,R,ugm-3,36,R,ugm-3,50,R,ugm-3
07-01-2000,03:00,10,R,ugm-3,38,R,ugm-3,53,R,ugm-3
07-01-2000,04:00,9,R,ugm-3,31,R,ugm-3,44,R,ugm-3
07-01-2000,05:00,15,R,ugm-3,29,R,ugm-3,52,R,ugm-3
07-01-2000,06:00,25,R,ugm-3,36,R,ugm-3,74,R,ugm-3
07-01-2000,07:00,18,R,ugm-3,46,R,ugm-3,73,R,ugm-3
07-01-2000,08:00,18,R,ugm-3,50,R,ugm-3,76,R,ugm-3
07-01-2000,09:00,24,R,ugm-3,48,R,ugm-3,84,R,ugm-3
07-01-2000,10:00,36,R,ugm-3,55,R,ugm-3,111,R,ugm-3
07-01-2000,11:00,38,R,ugm-3,50,R,ugm-3,107,R,ugm-3
07-01-2000,12:00,40,R,ugm-3,53,R,ugm-3,115,R,ugm-3
07-01-2000,13:00,30,R,ugm-3,46,R,ugm-3,92,R,ugm-3
07-01-2000,14:00,19,R,ugm-3,40,R,ugm-3,69,R,ugm-3
07-01-2000,15:00,23,R,ugm-3,42,R,ugm-3,76,R,ugm-3
07-01-2000,16:00,16,R,ugm-3,34,R,ugm-3,59,R,ugm-3
07-01-2000,17:00,15,R,ugm-3,32,R,ugm-3,55,R,ugm-3
07-01-2000,18:00,10,R,ugm-3,32,R,ugm-3,48,R,ugm-3
07-01-2000,19:00,11,R,ugm-3,27,R,ugm-3,44,R,ugm-3
07-01-2000,20:00,11,R,ugm-3,27,R,ugm-3,44,R,ugm-3
07-01-2000,21:00,11,R,ugm-3,21,R,ugm-3,38,R,ugm-3
07-01-2000,22:00,9,R,ugm-3,21,R,ugm-3,34,R,ugm-3
07-01-2000,23:00,8,R,ugm-3,17,R,ugm-3,29,R,ugm-3
07-01-2000,24:00,8,R,ugm-3,19,R,ugm-3,31,R,ugm-3
08-01-2000,01:00,9,R,ugm-3,13,R,ugm-3,27,R,ugm-3
08-01-2000,02:00,8,R,ugm-3,13,R,ugm-3,25,R,ugm-3
08-01-2000,03:00,8,R,ugm-3,17,R,ugm-3,29,R,ugm-3
08-01-2000,04:00,8,R,ugm-3,15,R,ugm-3,27,R,ugm-3
08-01-2000,05:00,8,R,ugm-3,17,R,ugm-3,29,R,ugm-3
08-01-2000,06:00,13,R,ugm-3,31,R,ugm-3,50,R,ugm-3
08-01-2000,07:00,29,R,ugm-3,53,R,ugm-3,97,R,ugm-3
08-01-2000,08:00,23,R,ugm-3,40,R,ugm-3,74,R,ugm-3
08-01-2000,09:00,24,R,ugm-3,44,R,ugm-3,80,R,ugm-3
08-01-2000,10:00,28,R,ugm-3,42,R,ugm-3,84,R,ugm-3
08-01-2000,11:00,25,R,ugm-3,36,R,ugm-3,74,R,ugm-3
08-01-2000,12:00,26,R,ugm-3,36,R,ugm-3,76,R,ugm-3
08-01-2000,13:00,19,R,ugm-3,29,R,ugm-3,57,R,ugm-3
08-01-2000,14:00,16,R,ugm-3,21,R,ugm-3,46,R,ugm-3
08-01-2000,15:00,14,R,ugm-3,25,R,ugm-3,46,R,ugm-3
08-01-2000,16:00,14,R,ugm-3,25,R,ugm-3,46,R,ugm-3
08-01-2000,17:00,23,R,ugm-3,46,R,ugm-3,80,R,ugm-3
08-01-2000,18:00,34,R,ugm-3,59,R,ugm-3,111,R,ugm-3
08-01-2000,19:00,18,R,ugm-3,34,R,ugm-3,61,R,ugm-3
08-01-2000,20:00,20,R,ugm-3,46,R,ugm-3,76,R,ugm-3
08-01-2000,21:00,24,R,ugm-3,48,R,ugm-3,84,R,ugm-3
08-01-2000,22:00,11,R,ugm-3,32,R,ugm-3,50,R,ugm-3
08-01-2000,23:00,10,R,ugm-3,38,R,ugm-3,53,R,ugm-3
08-01-2000,24:00,15,R,ugm-3,36,R,ugm-3,59,R,ugm-3
09-01-2000,01:00,14,R,ugm-3,40,R,ugm-3,61,R,ugm-3
09-01-2000,02:00,9,R,ugm-3,29,R,ugm-3,42,R,ugm-3
09-01-2000,03:00,6,R,ugm-3,27,R,ugm-3,36,R,ugm-3
09-01-2000,04:00,5,R,ugm-3,21,R,ugm-3,29,R,ugm-3
09-01-2000,05:00,6,R,ugm-3,27,R,ugm-3,36,R,ugm-3
09-01-2000,06:00,11,R,ugm-3,36,R,ugm-3,53,R,ugm-3
09-01-2000,07:00,21,R,ugm-3,42,R,ugm-3,74,R,ugm-3
09-01-2000,08:00,20,R,ugm-3,42,R,ugm-3,73,R,ugm-3
09-01-2000,09:00,30,R,ugm-3,52,R,ugm-3,97,R,ugm-3
09-01-2000,10:00,28,R,ugm-3,46,R,ugm-3,88,R,ugm-3
09-01-2000,11:00,24,R,ugm-3,32,R,ugm-3,69,R,ugm-3
09-01-2000,12:00,19,R,ugm-3,27,R,ugm-3,55,R,ugm-3
09-01-2000,13:00,24,R,ugm-3,31,R,ugm-3,67,R,ugm-3
09-01-2000,14:00,23,R,ugm-3,32,R,ugm-3,67,R,ugm-3
09-01-2000,15:00,24,R,ugm-3,38,R,ugm-3,74,R,ugm-3
09-01-2000,16:00,38,R,ugm-3,52,R,ugm-3,109,R,ugm-3
09-01-2000,17:00,63,R,ugm-3,65,R,ugm-3,160,R,ugm-3
09-01-2000,18:00,153,R,ugm-3,71,R,ugm-3,304,R,ugm-3
09-01-2000,19:00,221,R,ugm-3,78,R,ugm-3,416,R,ugm-3
09-01-2000,20:00,244,R,ugm-3,78,R,ugm-3,451,R,ugm-3
09-01-2000,21:00,253,R,ugm-3,76,R,ugm-3,462,R,ugm-3
09-01-2000,22:00,266,R,ugm-3,78,R,ugm-3,485,R,ugm-3
09-01-2000,23:00,333,R,ugm-3,84,R,ugm-3,592,R,ugm-3
09-01-2000,24:00,239,R,ugm-3,74,R,ugm-3,439,R,ugm-3
10-01-2000,01:00,209,R,ugm-3,80,R,ugm-3,399,R,ugm-3
10-01-2000,02:00,103,R,ugm-3,67,R,ugm-3,223,R,ugm-3
10-01-2000,03:00,84,R,ugm-3,65,R,ugm-3,193,R,ugm-3
10-01-2000,04:00,110,R,ugm-3,63,R,ugm-3,231,R,ugm-3
10-01-2000,05:00,49,R,ugm-3,59,R,ugm-3,134,R,ugm-3
10-01-2000,06:00,74,R,ugm-3,61,R,ugm-3,174,R,ugm-3
10-01-2000,07:00,134,R,ugm-3,69,R,ugm-3,273,R,ugm-3
10-01-2000,08:00,69,R,ugm-3,67,R,ugm-3,172,R,ugm-3
10-01-2000,09:00,69,R,ugm-3,63,R,ugm-3,168,R,ugm-3
10-01-2000,10:00,69,R,ugm-3,63,R,ugm-3,168,R,ugm-3
10-01-2000,11:00,48,R,ugm-3,57,R,ugm-3,130,R,ugm-3
10-01-2000,12:00,55,R,ugm-3,57,R,ugm-3,141,R,ugm-3
10-01-2000,13:00,45,R,ugm-3,57,R,ugm-3,126,R,ugm-3
10-01-2000,14:00,,,,,,,,,
10-01-2000,15:00,,,,,,,,,
10-01-2000,16:00,,,,,,,,,
10-01-2000,17:00,,,,,,,,,
10-01-2000,18:00,,,,,,,,,
10-01-2000,19:00,,,,,,,,,
10-01-2000,20:00,,,,,,,,,
10-01-2000,21:00,,,,,,,,,
10-01-2000,22:00,,,,,,,,,
10-01-2000,23:00,,,,,,,,,
10-01-2000,24:00,,,,,,,,,
11-01-2000,01:00,8,R,ugm-3,19,R,ugm-3,31,R,ugm-3
11-01-2000,02:00,9,R,ugm-3,21,R,ugm-3,34,R,ugm-3
11-01-2000,03:00,11,R,ugm-3,25,R,ugm-3,42,R,ugm-3
11-01-2000,04:00,10,R,ugm-3,27,R,ugm-3,42,R,ugm-3
11-01-2000,05:00,8,R,ugm-3,15,R,ugm-3,27,R,ugm-3
11-01-2000,06:00,11,R,ugm-3,25,R,ugm-3,42,R,ugm-3
11-01-2000,07:00,20,R,ugm-3,40,R,ugm-3,71,R,ugm-3
11-01-2000,08:00,25,R,ugm-3,44,R,ugm-3,82,R,ugm-3
11-01-2000,09:00,18,R,ugm-3,44,R,ugm-3,71,R,ugm-3
11-01-2000,10:00,26,R,ugm-3,48,R,ugm-3,88,R,ugm-3
11-01-2000,11:00,31,R,ugm-3,48,R,ugm-3,96,R,ugm-3
11-01-2000,12:00,36,R,ugm-3,46,R,ugm-3,101,R,ugm-3
11-01-2000,13:00,36,R,ugm-3,44,R,ugm-3,99,R,ugm-3
11-01-2000,14:00,36,R,ugm-3,50,R,ugm-3,105,R,ugm-3
11-01-2000,15:00,35,R,ugm-3,52,R,ugm-3,105,R,ugm-3
11-01-2000,16:00,35,R,ugm-3,53,R,ugm-3,107,R,ugm-3
11-01-2000,17:00,28,R,ugm-3,46,R,ugm-3,88,R,ugm-3
11-01-2000,18:00,21,R,ugm-3,40,R,ugm-3,73,R,ugm-3
11-01-2000,19:00,19,R,ugm-3,36,R,ugm-3,65,R,ugm-3
11-01-2000,20:00,16,R,ugm-3,34,R,ugm-3,59,R,ugm-3
11-01-2000,21:00,10,R,ugm-3,27,R,ugm-3,42,R,ugm-3
11-01-2000,22:00,11,R,ugm-3,32,R,ugm-3,50,R,ugm-3
11-01-2000,23:00,13,R,ugm-3,29,R,ugm-3,48,R,ugm-3
11-01-2000,24:00,8,R,ugm-3,25,R,ugm-3,36,R,ugm-3
12-01-2000,01:00,11,R,ugm-3,17,R,ugm-3,34,R,ugm-3
12-01-2000,02:00,10,R,ugm-3,13,R,ugm-3,29,R,ugm-3
12-01-2000,03:00,10,R,ugm-3,13,R,ugm-3,29,R,ugm-3
12-01-2000,04:00,10,R,ugm-3,11,R,ugm-3,27,R,ugm-3
12-01-2000,05:00,10,R,ugm-3,15,R,ugm-3,31,R,ugm-3
12-01-2000,06:00,11,R,ugm-3,25,R,ugm-3,42,R,ugm-3
12-01-2000,07:00,19,R,ugm-3,34,R,ugm-3,63,R,ugm-3
12-01-2000,08:00,19,R,ugm-3,36,R,ugm-3,65,R,ugm-3
12-01-2000,09:00,11,R,ugm-3,32,R,ugm-3,50,R,ugm-3
12-01-2000,10:00,21,R,ugm-3,42,R,ugm-3,74,R,ugm-3
12-01-2000,11:00,24,R,ugm-3,36,R,ugm-3,73,R,ugm-3
12-01-2000,12:00,25,R,ugm-3,40,R,ugm-3,78,R,ugm-3
12-01-2000,13:00,28,R,ugm-3,38,R,ugm-3,80,R,ugm-3
12-01-2000,14:00,20,R,ugm-3,29,R,ugm-3,59,R,ugm-3
12-01-2000,15:00,25,R,ugm-3,38,R,ugm-3,76,R,ugm-3
12-01-2000,16:00,16,R,ugm-3,31,R,ugm-3,55,R,ugm-3
12-01-2000,17:00,16,R,ugm-3,36,R,ugm-3,61,R,ugm-3
12-01-2000,18:00,13,R,ugm-3,31,R,ugm-3,50,R,ugm-3
12-01-2000,19:00,10,R,ugm-3,32,R,ugm-3,48,R,ugm-3
12-01-2000,20:00,11,R,ugm-3,31,R,ugm-3,48,R,ugm-3
12-01-2000,21:00,10,R,ugm-3,29,R,ugm-3,44,R,ugm-3
12-01-2000,22:00,10,R,ugm-3,19,R,ugm-3,34,R,ugm-3
12-01-2000,23:00,10,R,ugm-3,11,R,ugm-3,27,R,ugm-3
12-01-2000,24:00,11,R,ugm-3,17,R,ugm-3,34,R,ugm-3
13-01-2000,01:00,13,R,ugm-3,25,R,ugm-3,44,R,ugm-3
13-01-2000,02:00,15,R,ugm-3,31,R,ugm-3,53,R,ugm-3
13-01-2000,03:00,16,R,ugm-3,32,R,ugm-3,57,R,ugm-3
13-01-2000,04:00,9,R,ugm-3,23,R,ugm-3,36,R,ugm-3
13-01-2000,05:00,13,R,ugm-3,31,R,ugm-3,50,R,ugm-3
13-01-2000,06:00,25,R,ugm-3,42,R,ugm-3,80,R,ugm-3
13-01-2000,07:00,50,R,ugm-3,50,R,ugm-3,126,R,ugm-3
13-01-2000,08:00,59,R,ugm-3,59,R,ugm-3,149,R,ugm-3
13-01-2000,09:00,58,R,ugm-3,59,R,ugm-3,147,R,ugm-3
13-01-2000,10:00,80,R,ugm-3,57,R,ugm-3,180,R,ugm-3
13-01-2000,11:00,84,R,ugm-3,57,R,ugm-3,185,R,ugm-3
13-01-2000,12:00,61,R,ugm-3,52,R,ugm-3,145,R,ugm-3
13-01-2000,13:00,41,R,ugm-3,50,R,ugm-3,113,R,ugm-3
13-01-2000,14:00,43,R,ugm-3,48,R,ugm-3,113,R,ugm-3
13-01-2000,15:00,44,R,ugm-3,52,R,ugm-3,118,R,ugm-3
13-01-2000,16:00,68,R,ugm-3,65,R,ugm-3,168,R,ugm-3
13-01-2000,17:00,128,R,ugm-3,78,R,ugm-3,273,R,ugm-3
13-01-2000,18:00,199,R,ugm-3,82,R,ugm-3,386,R,ugm-3
13-01-2000,19:00,155,R,ugm-3,76,R,ugm-3,313,R,ugm-3
13-01-2000,20:00,91,R,ugm-3,67,R,ugm-3,206,R,ugm-3
13-01-2000,21:00,60,R,ugm-3,63,R,ugm-3,155,R,ugm-3
13-01-2000,22:00,11,R,ugm-3,44,R,ugm-3,61,R,ugm-3
13-01-2000,23:00,28,R,ugm-3,46,R,ugm-3,88,R,ugm-3
13-01-2000,24:00,74,R,ugm-3,57,R,ugm-3,170,R,ugm-3
14-01-2000,01:00,33,R,ugm-3,52,R,ugm-3,101,R,ugm-3
14-01-2000,02:00,24,R,ugm-3,50,R,ugm-3,86,R,ugm-3
14-01-2000,03:00,41,R,ugm-3,55,R,ugm-3,118,R,ugm-3
14-01-2000,04:00,30,R,ugm-3,53,R,ugm-3,99,R,ugm-3
14-01-2000,05:00,31,R,ugm-3,52,R,ugm-3,99,R,ugm-3
14-01-2000,06:00,51,R,ugm-3,50,R,ugm-3,128,R,ugm-3
14-01-2000,07:00,120,R,ugm-3,57,R,ugm-3,241,R,ugm-3
14-01-2000,08:00,146,R,ugm-3,65,R,ugm-3,288,R,ugm-3
14-01-2000,09:00,121,R,ugm-3,63,R,ugm-3,248,R,ugm-3
14-01-2000,10:00,70,R,ugm-3,53,R,ugm-3,160,R,ugm-3
14-01-2000,11:00,75,R,ugm-3,57,R,ugm-3,172,R,ugm-3
14-01-2000,12:00,59,R,ugm-3,55,R,ugm-3,145,R,ugm-3
14-01-2000,13:00,66,R,ugm-3,57,R,ugm-3,159,R,ugm-3
14-01-2000,14:00,58,R,ugm-3,59,R,ugm-3,147,R,ugm-3
14-01-2000,15:00,68,R,ugm-3,61,R,ugm-3,164,R,ugm-3
14-01-2000,16:00,44,R,ugm-3,55,R,ugm-3,122,R,ugm-3
14-01-2000,17:00,30,R,ugm-3,52,R,ugm-3,97,R,ugm-3
14-01-2000,18:00,40,R,ugm-3,59,R,ugm-3,120,R,ugm-3
14-01-2000,19:00,36,R,ugm-3,57,R,ugm-3,113,R,ugm-3
14-01-2000,20:00,6,R,ugm-3,27,R,ugm-3,36,R,ugm-3
14-01-2000,21:00,6,R,ugm-3,29,R,ugm-3,38,R,ugm-3
14-01-2000,22:00,3,R,ugm-3,25,R,ugm-3,29,R,ugm-3
14-01-2000,23:00,3,R,ugm-3,27,R,ugm-3,31,R,ugm-3
14-01-2000,24:00,3,R,ugm-3,23,R,ugm-3,27,R,ugm-3
15-01-2000,01:00,5,R,ugm-3,15,R,ugm-3,23,R,ugm-3
15-01-2000,02:00,5,R,ugm-3,11,R,ugm-3,19,R,ugm-3
15-01-2000,03:00,5,R,ugm-3,11,R,ugm-3,19,R,ugm-3
15-01-2000,04:00,5,R,ugm-3,11,R,ugm-3,19,R,ugm-3
15-01-2000,05:00,5,R,ugm-3,11,R,ugm-3,19,R,ugm-3
15-01-2000,06:00,5,R,ugm-3,13,R,ugm-3,21,R,ugm-3
15-01-2000,07:00,6,R,ugm-3,19,R,ugm-3,29,R,ugm-3
15-01-2000,08:00,11,R,ugm-3,23,R,ugm-3,40,R,ugm-3
15-01-2000,09:00,13,R,ugm-3,27,R,ugm-3,46,R,ugm-3
15-01-2000,10:00,,,,,,,,,
15-01-2000,11:00,,,,,,,,,
15-01-2000,12:00,,,,,,,,,
15-01-2000,13:00,,,,,,,,,
15-01-2000,14:00,,,,,,,,,
15-01-2000,15:00,,,,,,,,,
15-01-2000,16:00,,,,,,,,,
15-01-2000,17:00,,,,,,,,,
15-01-2000,18:00,,,,,,,,,
15-01-2000,19:00,,,,,,,,,
15-01-2000,20:00,,,,,,,,,
15-01-2000,21:00,,,,,,,,,
15-01-2000,22:00,,,,,,,,,
15-01-2000,23:00,,,,,,,,,
15-01-2000,24:00,,,,,,,,,
16-01-2000,01:00,68,R,ugm-3,53,R,ugm-3,157,R,ugm-3
16-01-2000,02:00,36,R,ugm-3,50,R,ugm-3,105,R,ugm-3
16-01-2000,03:00,64,R,ugm-3,50,R,ugm-3,147,R,ugm-3
16-01-2000,04:00,35,R,ugm-3,46,R,ugm-3,99,R,ugm-3
16-01-2000,05:00,43,R,ugm-3,48,R,ugm-3,113,R,ugm-3
16-01-2000,06:00,55,R,ugm-3,48,R,ugm-3,132,R,ugm-3
16-01-2000,07:00,46,R,ugm-3,48,R,ugm-3,118,R,ugm-3
16-01-2000,08:00,59,R,ugm-3,53,R,ugm-3,143,R,ugm-3
16-01-2000,09:00,50,R,ugm-3,50,R,ugm-3,126,R,ugm-3
16-01-2000,10:00,49,R,ugm-3,46,R,ugm-3,120,R,ugm-3
16-01-2000,11:00,41,R,ugm-3,46,R,ugm-3,109,R,ugm-3
16-01-2000,12:00,25,R,ugm-3,40,R,ugm-3,78,R,ugm-3
16-01-2000,13:00,14,R,ugm-3,31,R,ugm-3,52,R,ugm-3
16-01-2000,14:00,21,R,ugm-3,34,R,ugm-3,67,R,ugm-3
16-01-2000,15:00,21,R,ugm-3,42,R,ugm-3,74,R,ugm-3
16-01-2000,16:00,20,R,ugm-3,40,R,ugm-3,71,R,ugm-3
16-01-2000,17:00,31,R,ugm-3,44,R,ugm-3,92,R,ugm-3
16-01-2000,18:00,20,R,ugm-3,34,R,ugm-3,65,R,ugm-3
16-01-2000,19:00,21,R,ugm-3,38,R,ugm-3,71,R,ugm-3
16-01-2000,20:00,16,R,ugm-3,34,R,ugm-3,59,R,ugm-3
16-01-2000,21:00,14,R,ugm-3,31,R,ugm-3,52,R,ugm-3
16-01-2000,22:00,18,R,ugm-3,29,R,ugm-3,55,R,ugm-3
16-01-2000,23:00,13,R,ugm-3,23,R,ugm-3,42,R,ugm-3
16-01-2000,24:00,10,R,ugm-3,11,R,ugm-3,27,R,ugm-3
17-01-2000,01:00,10,R,ugm-3,10,R,ugm-3,25,R,ugm-3
17-01-2000,02:00,9,R,ugm-3,6,R,ugm-3,19,R,ugm-3
17-01-2000,03:00,8,R,ugm-3,6,R,ugm-3,17,R,ugm-3
17-01-2000,04:00,10,R,ugm-3,0,R,ugm-3,15,R,ugm-3
17-01-2000,05:00,11,R,ugm-3,13,R,ugm-3,31,R,ugm-3
17-01-2000,06:00,18,R,ugm-3,19,R,ugm-3,46,R,ugm-3
17-01-2000,07:00,29,R,ugm-3,29,R,ugm-3,73,R,ugm-3
17-01-2000,08:00,28,R,ugm-3,32,R,ugm-3,74,R,ugm-3
17-01-2000,09:00,26,R,ugm-3,34,R,ugm-3,74,R,ugm-3
17-01-2000,10:00,24,R,ugm-3,31,R,ugm-3,67,R,ugm-3
17-01-2000,11:00,25,R,ugm-3,31,R,ugm-3,69,R,ugm-3
17-01-2000,12:00,25,R,ugm-3,29,R,ugm-3,67,R,ugm-3
17-01-2000,13:00,33,R,ugm-3,38,R,ugm-3,88,R,ugm-3
17-01-2000,14:00,26,R,ugm-3,32,R,ugm-3,73,R,ugm-3
17-01-2000,15:00,30,R,ugm-3,36,R,ugm-3,82,R,ugm-3
17-01-2000,16:00,34,R,ugm-3,44,R,ugm-3,96,R,ugm-3
17-01-2000,17:00,33,R,ugm-3,46,R,ugm-3,96,R,ugm-3
17-01-2000,18:00,24,R,ugm-3,40,R,ugm-3,76,R,ugm-3
17-01-2000,19:00,19,R,ugm-3,34,R,ugm-3,63,R,ugm-3
17-01-2000,20:00,23,R,ugm-3,36,R,ugm-3,71,R,ugm-3
17-01-2000,21:00,20,R,ugm-3,36,R,ugm-3,67,R,ugm-3
17-01-2000,22:00,25,R,ugm-3,38,R,ugm-3,76,R,ugm-3
17-01-2000,23:00,23,R,ugm-3,38,R,ugm-3,73,R,ugm-3
17-01-2000,24:00,24,R,ugm-3,34,R,ugm-3,71,R,ugm-3
18-01-2000,01:00,14,R,ugm-3,27,R,ugm-3,48,R,ugm-3
18-01-2000,02:00,11,R,ugm-3,25,R,ugm-3,42,R,ugm-3
18-01-2000,03:00,15,R,ugm-3,29,R,ugm-3,52,R,ugm-3
18-01-2000,04:00,13,R,ugm-3,21,R,ugm-3,40,R,ugm-3
18-01-2000,05:00,15,R,ugm-3,23,R,ugm-3,46,R,ugm-3
18-01-2000,06:00,21,R,ugm-3,29,R,ugm-3,61,R,ugm-3
18-01-2000,07:00,23,R,ugm-3,29,R,ugm-3,63,R,ugm-3
18-01-2000,08:00,34,R,ugm-3,38,R,ugm-3,90,R,ugm-3
18-01-2000,09:00,39,R,ugm-3,44,R,ugm-3,103,R,ugm-3
18-01-2000,10:00,34,R,ugm-3,36,R,ugm-3,88,R,ugm-3
18-01-2000,11:00,35,R,ugm-3,40,R,ugm-3,94,R,ugm-3
18-01-2000,12:00,41,R,ugm-3,40,R,ugm-3,103,R,ugm-3
18-01-2000,13:00,44,R,ugm-3,46,R,ugm-3,113,R,ugm-3
18-01-2000,14:00,43,R,ugm-3,44,R,ugm-3,109,R,ugm-3
18-01-2000,15:00,46,R,ugm-3,44,R,ugm-3,115,R,ugm-3
18-01-2000,16:00,58,R,ugm-3,52,R,ugm-3,139,R,ugm-3
18-01-2000,17:00,58,R,ugm-3,52,R,ugm-3,139,R,ugm-3
18-01-2000,18:00,60,R,ugm-3,50,R,ugm-3,141,R,ugm-3
18-01-2000,19:00,53,R,ugm-3,48,R,ugm-3,128,R,ugm-3
18-01-2000,20:00,65,R,ugm-3,46,R,ugm-3,145,R,ugm-3
18-01-2000,21:00,88,R,ugm-3,52,R,ugm-3,185,R,ugm-3
18-01-2000,22:00,74,R,ugm-3,52,R,ugm-3,164,R,ugm-3
18-01-2000,23:00,66,R,ugm-3,52,R,ugm-3,153,R,ugm-3
18-01-2000,24:00,41,R,ugm-3,48,R,ugm-3,111,R,ugm-3
19-01-2000,01:00,496,R,ugm-3,103,R,ugm-3,861,R,ugm-3
19-01-2000,02:00,130,R,ugm-3,55,R,ugm-3,254,R,ugm-3
19-01-2000,03:00,28,R,ugm-3,31,R,ugm-3,73,R,ugm-3
19-01-2000,04:00,23,R,ugm-3,29,R,ugm-3,63,R,ugm-3
19-01-2000,05:00,24,R,ugm-3,38,R,ugm-3,74,R,ugm-3
19-01-2000,06:00,38,R,ugm-3,44,R,ugm-3,101,R,ugm-3
19-01-2000,07:00,70,R,ugm-3,50,R,ugm-3,157,R,ugm-3
19-01-2000,08:00,81,R,ugm-3,53,R,ugm-3,178,R,ugm-3
19-01-2000,09:00,80,R,ugm-3,53,R,ugm-3,176,R,ugm-3
19-01-2000,10:00,73,R,ugm-3,52,R,ugm-3,162,R,ugm-3
19-01-2000,11:00,56,R,ugm-3,46,R,ugm-3,132,R,ugm-3
19-01-2000,12:00,64,R,ugm-3,44,R,ugm-3,141,R,ugm-3
19-01-2000,13:00,51,R,ugm-3,46,R,ugm-3,124,R,ugm-3
19-01-2000,14:00,53,R,ugm-3,50,R,ugm-3,130,R,ugm-3
19-01-2000,15:00,,,,,,,,,
19-01-2000,16:00,,,,,,,,,
19-01-2000,17:00,,,,,,,,,
19-01-2000,18:00,183,R,ugm-3,84,R,ugm-3,363,R,ugm-3
19-01-2000,19:00,270,R,ugm-3,84,R,ugm-3,497,R,ugm-3
19-01-2000,20:00,361,R,ugm-3,94,R,ugm-3,646,R,ugm-3
19-01-2000,21:00,500,R,ugm-3,103,R,ugm-3,867,R,ugm-3
19-01-2000,22:00,738,R,ugm-3,147,R,ugm-3,1274,R,ugm-3
19-01-2000,23:00,636,R,ugm-3,132,R,ugm-3,1104,R,ugm-3
19-01-2000,24:00,488,R,ugm-3,105,R,ugm-3,850,R,ugm-3
20-01-2000,01:00,496,R,ugm-3,111,R,ugm-3,869,R,ugm-3
20-01-2000,02:00,130,R,ugm-3,63,R,ugm-3,262,R,ugm-3
20-01-2000,03:00,53,R,ugm-3,57,R,ugm-3,138,R,ugm-3
20-01-2000,04:00,29,R,ugm-3,50,R,ugm-3,94,R,ugm-3
20-01-2000,05:00,39,R,ugm-3,52,R,ugm-3,111,R,ugm-3
20-01-2000,06:00,63,R,ugm-3,55,R,ugm-3,151,R,ugm-3
20-01-2000,07:00,,,,,,,,,
20-01-2000,08:00,,,,,,,,,
20-01-2000,09:00,,,,,,,,,
20-01-2000,10:00,73,R,ugm-3,63,R,ugm-3,174,R,ugm-3
20-01-2000,11:00,48,R,ugm-3,53,R,ugm-3,126,R,ugm-3
20-01-2000,12:00,45,R,ugm-3,52,R,ugm-3,120,R,ugm-3
20-01-2000,13:00,44,R,ugm-3,52,R,ugm-3,118,R,ugm-3
20-01-2000,14:00,50,R,ugm-3,50,R,ugm-3,126,R,ugm-3
20-01-2000,15:00,45,R,ugm-3,46,R,ugm-3,115,R,ugm-3
20-01-2000,16:00,41,R,ugm-3,48,R,ugm-3,111,R,ugm-3
20-01-2000,17:00,45,R,ugm-3,55,R,ugm-3,124,R,ugm-3
20-01-2000,18:00,64,R,ugm-3,59,R,ugm-3,157,R,ugm-3
20-01-2000,19:00,43,R,ugm-3,53,R,ugm-3,118,R,ugm-3
20-01-2000,20:00,33,R,ugm-3,55,R,ugm-3,105,R,ugm-3
20-01-2000,21:00,36,R,ugm-3,59,R,ugm-3,115,R,ugm-3
20-01-2000,22:00,65,R,ugm-3,67,R,ugm-3,166,R,ugm-3
20-01-2000,23:00,64,R,ugm-3,65,R,ugm-3,162,R,ugm-3
20-01-2000,24:00,30,R,ugm-3,53,R,ugm-3,99,R,ugm-3
21-01-2000,01:00,26,R,ugm-3,46,R,ugm-3,86,R,ugm-3
21-01-2000,02:00,24,R,ugm-3,38,R,ugm-3,74,R,ugm-3
21-01-2000,03:00,28,R,ugm-3,38,R,ugm-3,80,R,ugm-3
21-01-2000,04:00,19,R,ugm-3,32,R,ugm-3,61,R,ugm-3
21-01-2000,05:00,18,R,ugm-3,29,R,ugm-3,55,R,ugm-3
21-01-2000,06:00,28,R,ugm-3,34,R,ugm-3,76,R,ugm-3
21-01-2000,07:00,59,R,ugm-3,50,R,ugm-3,139,R,ugm-3
21-01-2000,08:00,73,R,ugm-3,61,R,ugm-3,172,R,ugm-3
21-01-2000,09:00,81,R,ugm-3,63,R,ugm-3,187,R,ugm-3